Weather History for Enid, OK

Change the Weather History Date:

Friday, April 18, 2014

  Actual Average Record
Temperature  
Mean Temperature 54 °F -  
Max Temperature 75 °F 68 °F 89 °F (2011)
Min Temperature 33 °F 47 °F 33 °F (1999)
Degree Days  
Heating Degree Days 11    
Growing Degree Days 4 (Base 50)    
Moisture  
Dew Point 38 °F    
Average Humidity 72    
Maximum Humidity 100    
Minimum Humidity 31    
Precipitation  
Precipitation 0.00 in - - ()
Sea Level Pressure  
Sea Level Pressure 30.20 in    
Wind  
Wind Speed 5 mph (East)    
Max Wind Speed 15 mph    
Max Gust Speed 21 mph    
Visibility 8 miles    
Events      
Averages and records for this station are not official NWS values.
T = Trace of Precipitation, MM = Missing Value Source: NWS Daily Summary

Daily Weather History Graph

Daily Weather History Graph

Search for Another Location

Airport:

Trip Planner

Search our weather history database for the weather conditions in past years. The results will help you decide how hot, cold, wet, or windy it might be!

Date:

Astronomy

Apr. 18, 2014 Rise Set
Actual Time 6:53 AM CDT 8:07 PM CDT
Civil Twilight 6:26 AM CDT 8:34 PM CDT
Nautical Twilight 5:55 AM CDT 9:06 PM CDT
Astronomical Twilight 5:21 AM CDT 9:39 PM CDT
Moon 11:50 PM CDT (4/18) 9:20 AM CDT (4/18)
Length of Visible Light 14h 07m
Length of Day
13h 14m
Waning Gibbous, 87% of the Moon is Illuminated
Apr 18
Waning Gibbous
Apr 22
Last Quarter
Apr 29
New
May 6
First Quarter
May 14
Full

Hourly Weather History & Observations

Time (CDT) Temp. Windchill Dew Point Humidity Pressure Visibility Wind Dir Wind Speed Gust Speed Precip Events Conditions
12:15 AM 37.4 °F 32.8 °F 35.6 °F 93% 30.26 in 7.0 mi North 5.8 mph - N/A   Scattered Clouds
12:35 AM 39.2 °F 35.0 °F 35.6 °F 87% 30.26 in 7.0 mi North 5.8 mph - N/A   Mostly Cloudy
12:55 AM 39.2 °F 35.0 °F 35.6 °F 87% 30.26 in 7.0 mi North 5.8 mph - N/A   Mostly Cloudy
1:15 AM 39.2 °F 35.9 °F 35.6 °F 87% 30.26 in 7.0 mi North 4.6 mph - N/A   Mostly Cloudy
1:35 AM 39.2 °F 37.0 °F 35.6 °F 87% 30.27 in 7.0 mi North 3.5 mph - N/A   Overcast
1:55 AM 39.2 °F 35.9 °F 35.6 °F 87% 30.26 in 7.0 mi North 4.6 mph - N/A   Overcast
2:15 AM 39.2 °F 37.0 °F 35.6 °F 87% 30.26 in 7.0 mi North 3.5 mph - N/A   Overcast
2:35 AM 39.2 °F - 35.6 °F 87% 30.25 in 7.0 mi Calm Calm - N/A   Overcast
2:55 AM 39.2 °F 35.9 °F 35.6 °F 87% 30.25 in 7.0 mi North 4.6 mph - N/A   Overcast
3:15 AM 37.4 °F 33.8 °F 33.8 °F 87% 30.24 in 5.0 mi North 4.6 mph - N/A   Scattered Clouds
3:35 AM 35.6 °F 32.8 °F 33.8 °F 93% 30.25 in 5.0 mi North 3.5 mph - N/A   Clear
3:55 AM 35.6 °F 32.8 °F 33.8 °F 93% 30.25 in 5.0 mi North 3.5 mph - N/A   Clear
4:15 AM 33.8 °F - 32.0 °F 93% 30.24 in 5.0 mi Calm Calm - N/A   Clear
4:35 AM 33.8 °F - 32.0 °F 93% 30.24 in 5.0 mi Calm Calm - N/A   Clear
4:55 AM 33.8 °F 30.8 °F 32.0 °F 93% 30.24 in 4.0 mi North 3.5 mph - N/A   Clear
5:15 AM 33.8 °F - 32.0 °F 93% 30.24 in 4.0 mi Calm Calm - N/A   Clear
5:35 AM 33.8 °F - 32.0 °F 93% 30.25 in 4.0 mi Calm Calm - N/A   Clear
5:55 AM 33.8 °F 30.8 °F 33.8 °F 100% 30.25 in 4.0 mi NNE 3.5 mph - N/A   Clear
6:17 AM 33.8 °F 28.6 °F 32.0 °F 93% 30.26 in 4.0 mi NNW 5.8 mph - N/A   Clear
6:50 AM 33.8 °F 28.6 °F 32.0 °F 93% 30.26 in 4.0 mi NNW 5.8 mph - N/A   Clear
7:50 AM 37.4 °F - 35.6 °F 93% 30.27 in 3.0 mi Calm Calm - N/A   Clear
8:50 AM 48.2 °F - 41.0 °F 76% 30.27 in 5.0 mi East 8.1 mph - N/A   Haze
10:50 AM 60.8 °F - 44.6 °F 55% 30.27 in 7.0 mi ESE 8.1 mph - N/A   Clear
11:50 AM 66.2 °F - 42.8 °F 43% 30.24 in 10.0 mi ESE 13.8 mph - N/A   Clear
12:50 PM 69.8 °F - 42.8 °F 38% 30.22 in 10.0 mi ESE 13.8 mph - N/A   Clear
1:50 PM 71.6 °F - 42.8 °F 35% 30.20 in 10.0 mi South 13.8 mph 20.7 mph N/A   Partly Cloudy
2:50 PM 73.4 °F - 42.8 °F 33% 30.18 in 10.0 mi South 11.5 mph - N/A   Partly Cloudy
3:50 PM 75.2 °F - 42.8 °F 31% 30.14 in 10.0 mi SSE 15.0 mph - N/A   Partly Cloudy
4:50 PM 75.2 °F - 42.8 °F 31% 30.11 in 10.0 mi SSE 9.2 mph - N/A   Scattered Clouds
5:50 PM 75.2 °F - 42.8 °F 31% 30.10 in 10.0 mi SE 10.4 mph 17.3 mph N/A   Scattered Clouds
6:50 PM 73.4 °F - 42.8 °F 33% 30.09 in 10.0 mi SE 13.8 mph 18.4 mph N/A   Scattered Clouds
7:50 PM 68.0 °F - 42.8 °F 40% 30.08 in 10.0 mi SSE 8.1 mph - N/A   Scattered Clouds
8:50 PM 57.2 °F - 42.8 °F 59% 30.09 in 10.0 mi SSE 6.9 mph - N/A   Scattered Clouds
9:15 PM 53.6 °F - 41.0 °F 62% 30.09 in 10.0 mi South 5.8 mph - N/A   Clear
9:35 PM 53.6 °F - 41.0 °F 62% 30.10 in 10.0 mi SE 4.6 mph - N/A   Clear
9:55 PM 51.8 °F - 41.0 °F 67% 30.10 in 10.0 mi SE 6.9 mph - N/A   Clear
10:15 PM 51.8 °F - 41.0 °F 67% 30.10 in 10.0 mi SE 8.1 mph - N/A   Clear
10:35 PM 51.8 °F - 41.0 °F 67% 30.11 in 10.0 mi SE 6.9 mph - N/A   Clear
10:55 PM 50.0 °F - 41.0 °F 71% 30.11 in 10.0 mi Calm Calm - N/A   Clear
11:15 PM 50.0 °F - 41.0 °F 71% 30.12 in 10.0 mi Calm Calm - N/A   Clear
11:35 PM 50.0 °F - 41.0 °F 71% 30.12 in 10.0 mi SSE 3.5 mph - N/A   Clear
11:55 PM 48.2 °F - 41.0 °F 76% 30.12 in 10.0 mi SSE 3.5 mph - N/A   Clear